Weather reports worldwide

Advertisment
Büchel (Flugplatz), Germany (10613): temperature & dewpoint: 16.09.2019 23:00:00 - 22.09.2019 23:00:00 (CEST)Büchel (Flugplatz), Germany (10613): wind speed: 16.09.2019 23:00:00 - 22.09.2019 23:00:00 (CEST)Büchel (Flugplatz), Germany (10613): wind direction: 16.09.2019 23:00:00 - 22.09.2019 23:00:00 (CEST)Büchel (Flugplatz), Germany (10613): reduced air pressure: 16.09.2019 23:00:00 - 22.09.2019 23:00:00 (CEST)Büchel (Flugplatz), Germany (10613): visibility: 16.09.2019 23:00:00 - 22.09.2019 23:00:00 (CEST)
Date & Time tt [°C] td [°C] ff [km/h] ff [kn] dd ppp [hPa] vv [km]
22.09.2019 23:00:00 16,5 14,8 11 6 W 1009,7 15
22.09.2019 22:00:00 17,4 14,2 14 8 WSW 1009,4 20
22.09.2019 21:00:00 18,5 10,4 11 6 S 1009,2 27
22.09.2019 20:00:00 18,9 10,7 7 4 ESE 1008,3 28
22.09.2019 19:00:00 20,0 10,9 7 4 ESE 1008,0 30
22.09.2019 18:00:00 21,4 11,1 11 6 SE 1008,1 35
22.09.2019 17:00:00 21,9 11,8 7 4 SE 1008,2 30
22.09.2019 16:00:00 21,8 12,0 11 6 S 1008,4 35
22.09.2019 15:00:00 22,2 11,8 14 8 SW 1008,6 40
22.09.2019 14:00:00 21,6 11,0 11 6 SSW 1009,1 35
22.09.2019 13:00:00 20,6 10,6 14 8 S 1009,9 35
22.09.2019 12:00:00 19,1 8,6 7 4 SSE 1010,6 30
22.09.2019 11:00:00 17,1 7,6 7 4 SE 1011,3 26
22.09.2019 10:00:00 15,6 6,4 7 4 E 1011,7 30
22.09.2019 09:00:00 13,9 5,5 11 6 E 1012,1 27
22.09.2019 08:00:00 12,2 4,7 11 6 E 1012,2 30
22.09.2019 07:00:00 12,5 4,2 11 6 ESE 1012,4 30
22.09.2019 06:00:00 12,9 4,2 7 4 ESE 1012,6 35
22.09.2019 05:00:00 12,8 3,9 7 4 ESE 1013,1 35
22.09.2019 04:00:00 13,1 3,9 11 6 E 1013,4 30
22.09.2019 03:00:00 13,2 3,5 7 4 E 1013,7 35
22.09.2019 02:00:00 13,7 3,3 11 6 E 1013,9 40
22.09.2019 01:00:00 14,3 3,3 14 8 E 1014,1 35
22.09.2019 00:00:00 14,0 3,5 14 8 E 1014,8 45
21.09.2019 23:00:00 15,5 3,0 11 6 E 1015,5 45
21.09.2019 22:00:00 14,7 2,5 11 6 E 1015,7 55
21.09.2019 21:00:00 16,2 1,6 11 6 ESE 1015,8 75
21.09.2019 20:00:00 16,9 1,5 14 8 E 1015,6 75
21.09.2019 19:00:00 18,8 1,0 11 6 ESE 1015,7 75
21.09.2019 18:00:00 19,8 1,3 14 8 E 1015,9 45
21.09.2019 17:00:00 20,3 1,7 18 10 ESE 1016,1 55
21.09.2019 16:00:00 20,4 1,3 18 10 ESE 1016,7 75
21.09.2019 15:00:00 19,7 0,5 18 10 SE 1017,5 50
21.09.2019 14:00:00 18,6 -0,6 18 10 ESE 1018,5 75
21.09.2019 13:00:00 16,9 0,6 22 12 E 1019,7 35
21.09.2019 12:00:00 15,0 2,1 18 10 E 1020,7 40
21.09.2019 11:00:00 13,2 2,2 14 8 ESE 1021,5 25
21.09.2019 10:00:00 11,9 1,9 18 10 E 1021,7 40
21.09.2019 09:00:00 10,4 1,5 22 12 E 1021,8 35
21.09.2019 08:00:00 9,3 1,1 22 12 E 1022,2 35
21.09.2019 07:00:00 8,8 0,9 18 10 E 1022,4 30
21.09.2019 06:00:00 8,9 1,0 18 10 E 1022,7 35
21.09.2019 05:00:00 9,2 0,9 18 10 E 1022,9 35
21.09.2019 04:00:00 9,8 1,0 18 10 E 1023,1 35
21.09.2019 03:00:00 10,0 0,9 14 8 E 1023,7 35
21.09.2019 02:00:00 9,7 1,1 18 10 E 1024,1 40
21.09.2019 01:00:00 10,4 1,2 18 10 E 1024,2 40
21.09.2019 00:00:00 10,0 1,9 14 8 E 1024,8 40
20.09.2019 23:00:00 10,4 1,8 14 8 E 1025,1 40
20.09.2019 22:00:00 10,9 1,4 11 6 E 1025,5 45
20.09.2019 21:00:00 11,5 1,3 7 4 E 1025,8 60
20.09.2019 20:00:00 12,7 1,6 14 8 ENE 1025,6 75
20.09.2019 19:00:00 15,1 0,8 18 10 E 1025,3 75
20.09.2019 18:00:00 16,3 0,5 18 10 E 1025,2 55
20.09.2019 17:00:00 16,5 0,6 22 12 E 1025,7 35
20.09.2019 16:00:00 16,0 0,0 18 10 E 1026,3 40
20.09.2019 15:00:00 15,5 0,7 18 10 E 1027,1 35
20.09.2019 14:00:00 14,7 1,1 18 10 E 1027,7 60
20.09.2019 13:00:00 13,3 1,8 15 8 ESE 1028,6 10
20.09.2019 12:00:00 12,3 2,2 15 8 ESE 1029,0 10
20.09.2019 11:00:00 10,9 1,7 18 10 E 1029,6 30
20.09.2019 10:00:00 9,6 1,6 14 8 E 1029,8 30
20.09.2019 09:00:00 7,6 2,0 14 8 ENE 1029,9 30
20.09.2019 08:00:00 5,8 1,4 11 6 NE 1030,0 25
20.09.2019 07:00:00 5,4 0,9 14 8 NE 1029,8 25
20.09.2019 06:00:00 5,3 1,0 14 8 NE 1029,9 12
20.09.2019 05:00:00 6,5 1,2 11 6 NE 1030,0 7
20.09.2019 04:00:00 7,0 1,2 11 6 NE 1030,2 7
20.09.2019 03:00:00 6,6 1,3 11 6 NE 1030,6 6
20.09.2019 02:00:00 7,4 1,3 11 6 NE 1030,7 7
20.09.2019 01:00:00 7,3 1,5 14 8 NE 1031,1 7
20.09.2019 00:00:00 8,1 1,7 14 8 NE 1030,8 7
19.09.2019 23:00:00 9,4 1,5 14 8 NNE 1030,4 7
19.09.2019 22:00:00 10,0 1,6 11 6 N 1030,2 7
19.09.2019 21:00:00 10,3 1,9 11 6 N 1029,9 7
19.09.2019 20:00:00 11,4 1,9 11 6 N 1029,6 8
19.09.2019 19:00:00 12,6 2,0 14 8 NNE 1028,9 7
19.09.2019 18:00:00 13,1 1,8 15 8 NE 1028,6 10
19.09.2019 17:00:00 13,4 1,7 22 12 NE 1028,9 40
19.09.2019 16:00:00 13,1 1,5 14 8 NE 1029,2 30
19.09.2019 15:00:00 13,2 1,6 14 8 NNE 1029,2 30
19.09.2019 14:00:00 12,1 2,0 14 8 NNE 1029,9 25
19.09.2019 13:00:00 11,6 2,2 22 12 ENE 1030,4 25
19.09.2019 12:00:00 10,4 2,1 18 10 ENE 1030,9 25
19.09.2019 11:00:00 9,7 3,0 22 12 ENE 1030,8 25
19.09.2019 10:00:00 9,2 3,9 22 12 NE 1030,5 25
19.09.2019 09:00:00 7,5 3,8 18 10 NNE 1030,3 25
19.09.2019 08:00:00 5,6 3,4 11 6 NE 1030,2 20
19.09.2019 07:00:00 6,3 3,6 14 8 NNE 1029,5 12
19.09.2019 06:00:00 6,7 4,4 11 6 NNE 1029,0 10
19.09.2019 05:00:00 6,7 4,3 11 6 NNE 1028,9 6
19.09.2019 04:00:00 7,0 4,2 14 8 N 1029,1 6
19.09.2019 03:00:00 7,5 4,1 11 6 N 1029,0 7
19.09.2019 02:00:00 8,5 4,2 14 8 N 1028,5 8
19.09.2019 01:00:00 7,9 3,4 7 4 NNE 1028,6 8
19.09.2019 00:00:00 8,7 3,8 11 6 N 1028,2 9
18.09.2019 23:00:00 9,4 4,0 11 6 NNE 1027,7 9
18.09.2019 22:00:00 9,8 3,5 11 6 N 1027,5 9
18.09.2019 21:00:00 10,5 2,8 7 4 N 1027,2 9
18.09.2019 20:00:00 11,4 2,3 7 4 N 1026,4 10
18.09.2019 19:00:00 12,8 2,0 11 6 N 1025,9 9
18.09.2019 18:00:00 13,5 1,7 14 8 N 1025,6 25
18.09.2019 17:00:00 13,5 2,1 14 8 N 1025,6 25
18.09.2019 16:00:00 13,9 2,2 14 8 N 1025,5 25
18.09.2019 15:00:00 13,1 1,9 11 6 NNE 1026,0 25
18.09.2019 14:00:00 13,0 2,9 22 12 NE 1026,4 25
18.09.2019 13:00:00 11,5 3,4 14 8 N 1027,0 20
18.09.2019 12:00:00 10,8 3,8 18 10 NE 1027,3 20
18.09.2019 11:00:00 10,1 5,1 22 12 NE 1027,4 12
18.09.2019 10:00:00 9,2 4,9 14 8 NE 1027,3 12
18.09.2019 09:00:00 7,7 5,1 7 4 NE 1027,0 12
18.09.2019 08:00:00 6,0 4,2 7 4 NNE 1026,9 15
18.09.2019 07:00:00 6,0 4,0 11 6 N 1026,7 15
18.09.2019 06:00:00 6,1 3,9 7 4 NNE 1026,3 25
18.09.2019 05:00:00 6,6 3,9 11 6 N 1026,1 14
18.09.2019 04:00:00 6,9 3,8 7 4 N 1025,9 14
18.09.2019 03:00:00 7,0 3,8 7 4 NE 1025,9 16
18.09.2019 02:00:00 7,6 3,5 7 4 NNE 1025,8 17
18.09.2019 01:00:00 8,4 3,5 11 6 N 1025,3 18
18.09.2019 00:00:00 9,6 3,3 14 8 N 1024,8 20
17.09.2019 23:00:00 10,6 3,7 18 10 N 1024,5 20
17.09.2019 22:00:00 11,4 5,7 11 6 N 1023,4 19
17.09.2019 21:00:00 11,8 6,2 11 6 NW 1022,7 18
17.09.2019 20:00:00 12,6 5,8 14 8 NW 1021,7 23
17.09.2019 19:00:00 13,6 5,6 11 6 NW 1021,5 21
17.09.2019 18:00:00 14,8 5,9 11 6 NNW 1021,1 25
17.09.2019 17:00:00 15,4 5,3 18 10 NNW 1020,8 25
17.09.2019 16:00:00 15,6 5,6 14 8 NNW 1020,7 25
17.09.2019 15:00:00 15,3 5,4 18 10 NNW 1020,7 25
17.09.2019 14:00:00 14,7 5,7 14 8 N 1021,1 25
17.09.2019 13:00:00 14,4 5,8 18 10 WNW 1021,2 25
17.09.2019 12:00:00 13,7 6,4 14 8 NW 1021,7 25
17.09.2019 11:00:00 13,2 7,1 14 8 NW 1021,6 20
17.09.2019 10:00:00 12,2 6,8 14 8 NNW 1021,6 20
17.09.2019 09:00:00 11,2 7,9 11 6 NNW 1021,4 20
17.09.2019 08:00:00 11,4 9,6 11 6 NW 1021,1 20
17.09.2019 07:00:00 11,3 9,8 7 4 WNW 1020,7 25
17.09.2019 06:00:00 11,4 9,7 7 4 W 1020,6 25
17.09.2019 05:00:00 11,5 9,3 4 2 WNW 1020,6 18
17.09.2019 04:00:00 11,7 9,2 4 2 NNW 1020,7 19
17.09.2019 03:00:00 11,7 9,2 7 4 NNW 1020,8 18
17.09.2019 02:00:00 11,8 9,8 14 8 NNW 1021,0 16
17.09.2019 01:00:00 12,1 10,7 14 8 NNW 1020,8 15
17.09.2019 00:00:00 13,4 12,4 7 4 N 1020,5 9
16.09.2019 23:00:00 14,4 12,2 11 6 NNW 1020,0 8

tt = temperature
td = dewpoint
ff = wind speed
dd = wind direction
ppp = reduced air pressure
vv = visibility

Next stations